BEL4PA EBBR-EDDK

Flight info

Callsign BEL4PA
Flight time 0h 28m
Altitude 17000
Route LNO M170 KENUM/N0362F130 T862 ERUKI ERUKI1K
Aircraft A320/M-SDE3FGHIRWY/LB1

Departure

Time 2026-04-30 21:03
Airport Brussels Airport (EBBR)

Arrival

Time 2026-04-30 21:31
Airport Cologne Bonn Airport (EDDK)
Time Latitude Longitude Altitude Speed Heading
2026-04-30 20:34 50.90360 4.48426 120 ft 0 kts 155°
2026-04-30 20:36 50.90377 4.48482 117 ft 0 kts 155°
2026-04-30 20:54 50.90385 4.48476 117 ft 4 kts 154°
2026-04-30 20:55 50.90432 4.48434 116 ft 4 kts 139°
2026-04-30 20:55 50.90447 4.48403 119 ft 4 kts 92°
2026-04-30 20:55 50.90447 4.48390 120 ft 0 kts 65°
2026-04-30 20:57 50.90451 4.48404 119 ft 6 kts 65°
2026-04-30 20:57 50.90488 4.48530 118 ft 18 kts 65°
2026-04-30 20:57 50.90554 4.48763 118 ft 27 kts 66°
2026-04-30 20:58 50.90548 4.49182 123 ft 19 kts 151°
2026-04-30 20:58 50.90426 4.49292 123 ft 21 kts 154°
2026-04-30 20:58 50.90380 4.49328 124 ft 0 kts 154°
2026-04-30 20:59 50.90348 4.49352 124 ft 8 kts 152°
2026-04-30 20:59 50.90276 4.49401 126 ft 15 kts 183°
2026-04-30 21:00 50.90000 4.49291 132 ft 26 kts 197°
2026-04-30 21:00 50.89669 4.49156 151 ft 22 kts 201°
2026-04-30 21:01 50.89408 4.49006 161 ft 13 kts 187°
2026-04-30 21:01 50.89374 4.49038 164 ft 2 kts 141°
2026-04-30 21:01 50.89331 4.49085 167 ft 6 kts 169°
2026-04-30 21:02 50.89261 4.49064 171 ft 15 kts 195°
2026-04-30 21:02 50.89158 4.49099 176 ft 18 kts 108°
2026-04-30 21:02 50.89224 4.49430 176 ft 62 kts 70°
2026-04-30 21:02 50.89454 4.50418 176 ft 126 kts 70°
2026-04-30 21:03 50.89814 4.51971 301 ft 165 kts 71°
2026-04-30 21:03 50.90266 4.53725 888 ft 177 kts 67°
2026-04-30 21:03 50.90815 4.55476 1726 ft 178 kts 69°
2026-04-30 21:03 50.91390 4.57211 2531 ft 178 kts 71°
2026-04-30 21:04 50.91941 4.58954 3275 ft 176 kts 73°
2026-04-30 21:04 50.92486 4.60729 3838 ft 188 kts 71°
2026-04-30 21:04 50.93797 4.65020 4418 ft 241 kts 75°
2026-04-30 21:05 50.94362 4.67628 5062 ft 256 kts 76°
2026-04-30 21:05 50.94903 4.70356 5937 ft 262 kts 77°
2026-04-30 21:05 50.95407 4.73110 6844 ft 264 kts 82°
2026-04-30 21:05 50.95446 4.76000 7710 ft 263 kts 102°
2026-04-30 21:06 50.94830 4.78729 8570 ft 266 kts 121°
2026-04-30 21:06 50.93612 4.80988 9446 ft 270 kts 139°
2026-04-30 21:06 50.92161 4.82869 10299 ft 274 kts 140°
2026-04-30 21:06 50.90622 4.84865 10749 ft 294 kts 141°
2026-04-30 21:07 50.88857 4.86671 11004 ft 319 kts 151°
2026-04-30 21:07 50.86714 4.87976 11319 ft 340 kts 164°
2026-04-30 21:07 50.84340 4.88559 11957 ft 349 kts 173°
2026-04-30 21:07 50.81905 4.88926 12686 ft 354 kts 172°
2026-04-30 21:08 50.79440 4.89310 13430 ft 358 kts 172°
2026-04-30 21:08 50.76947 4.89707 14153 ft 362 kts 172°
2026-04-30 21:08 50.74427 4.90112 14786 ft 366 kts 172°
2026-04-30 21:08 50.71900 4.90672 15432 ft 368 kts 163°
2026-04-30 21:09 50.69532 4.92175 16056 ft 368 kts 148°
2026-04-30 21:09 50.67532 4.94684 16692 ft 369 kts 131°
2026-04-30 21:09 50.66054 4.97998 17161 ft 371 kts 116°
2026-04-30 21:09 50.65231 5.01845 17279 ft 377 kts 100°
2026-04-30 21:10 50.64841 5.06041 17297 ft 396 kts 98°
2026-04-30 21:10 50.64449 5.10378 17296 ft 402 kts 98°
2026-04-30 21:10 50.64046 5.14751 17301 ft 404 kts 99°
2026-04-30 21:10 50.63635 5.19131 17297 ft 404 kts 99°
2026-04-30 21:11 50.63221 5.23503 17301 ft 404 kts 99°
2026-04-30 21:11 50.62802 5.27876 17300 ft 404 kts 99°
2026-04-30 21:11 50.62381 5.32254 17301 ft 404 kts 99°
2026-04-30 21:11 50.61959 5.36631 17300 ft 404 kts 99°
2026-04-30 21:12 50.61537 5.40999 17300 ft 404 kts 99°
2026-04-30 21:12 50.61112 5.45367 17301 ft 404 kts 99°
2026-04-30 21:12 50.60686 5.49734 17302 ft 404 kts 99°
2026-04-30 21:12 50.60259 5.54089 17302 ft 403 kts 99°
2026-04-30 21:13 50.59829 5.58461 17303 ft 403 kts 99°
2026-04-30 21:13 50.59399 5.62811 17301 ft 403 kts 99°
2026-04-30 21:13 50.59070 5.67190 17302 ft 403 kts 92°
2026-04-30 21:13 50.59217 5.71593 17301 ft 404 kts 82°
2026-04-30 21:14 50.59870 5.75834 17300 ft 405 kts 72°
2026-04-30 21:14 50.60920 5.79955 17300 ft 406 kts 69°
2026-04-30 21:14 50.61993 5.84064 17300 ft 406 kts 69°
2026-04-30 21:14 50.63059 5.88179 17302 ft 406 kts 69°
2026-04-30 21:15 50.64121 5.92295 17299 ft 406 kts 69°
2026-04-30 21:15 50.65180 5.96413 17299 ft 405 kts 69°
2026-04-30 21:15 50.66237 6.00533 17299 ft 405 kts 69°
2026-04-30 21:15 50.67289 6.04653 17303 ft 405 kts 69°
2026-04-30 21:16 50.68340 6.08773 17304 ft 405 kts 69°
2026-04-30 21:16 50.69394 6.12893 17307 ft 405 kts 69°
2026-04-30 21:16 50.70432 6.17017 17306 ft 404 kts 72°
2026-04-30 21:16 50.71104 6.21306 17302 ft 402 kts 83°
2026-04-30 21:17 50.71244 6.25707 17308 ft 401 kts 93°
2026-04-30 21:17 50.70847 6.30041 17321 ft 400 kts 104°
2026-04-30 21:17 50.69987 6.34229 17326 ft 401 kts 109°
2026-04-30 21:17 50.69063 6.38372 17327 ft 400 kts 109°
2026-04-30 21:18 50.68142 6.42514 17331 ft 400 kts 109°
2026-04-30 21:18 50.67224 6.46657 17333 ft 400 kts 109°
2026-04-30 21:18 50.66306 6.50798 17334 ft 400 kts 109°
2026-04-30 21:18 50.65385 6.54946 17337 ft 400 kts 109°
2026-04-30 21:19 50.64464 6.59079 17334 ft 400 kts 109°
2026-04-30 21:19 50.63550 6.63162 17338 ft 386 kts 109°
2026-04-30 21:19 50.62681 6.67018 17340 ft 372 kts 109°
2026-04-30 21:19 50.61849 6.70833 17242 ft 366 kts 105°
2026-04-30 21:20 50.61373 6.74802 16248 ft 374 kts 94°
2026-04-30 21:20 50.61468 6.78947 15206 ft 385 kts 82°
2026-04-30 21:20 50.62073 6.83071 14452 ft 387 kts 76°
2026-04-30 21:20 50.62734 6.87173 13763 ft 385 kts 77°
2026-04-30 21:21 50.63365 6.91255 13063 ft 382 kts 77°
2026-04-30 21:21 50.63979 6.95314 12278 ft 381 kts 78°
2026-04-30 21:21 50.65183 7.03328 11158 ft 367 kts 78°
2026-04-30 21:22 50.65937 7.07068 11036 ft 351 kts 68°
2026-04-30 21:22 50.70172 7.15109 10675 ft 318 kts 17°
2026-04-30 21:23 50.72314 7.15162 10555 ft 313 kts 348°
2026-04-30 21:23 50.74219 7.13610 10400 ft 308 kts 318°
2026-04-30 21:23 50.75659 7.07752 10159 ft 284 kts 261°
2026-04-30 21:24 50.75057 7.04889 10015 ft 268 kts 234°
2026-04-30 21:24 50.73963 7.02558 9728 ft 263 kts 232°
2026-04-30 21:24 50.73060 7.00064 9228 ft 262 kts 240°
2026-04-30 21:24 50.72256 6.97491 8671 ft 260 kts 240°
2026-04-30 21:25 50.70946 6.93247 7759 ft 257 kts 242°
2026-04-30 21:25 50.70557 6.90514 7223 ft 259 kts 273°
2026-04-30 21:25 50.71124 6.87863 6749 ft 254 kts 307°
2026-04-30 21:26 50.73943 6.84924 5756 ft 243 kts 337°
2026-04-30 21:26 50.75504 6.83968 5217 ft 238 kts 359°
2026-04-30 21:27 50.77992 6.86076 4554 ft 194 kts 82°
2026-04-30 21:27 50.78277 6.88096 4226 ft 194 kts 76°
2026-04-30 21:27 50.78861 6.90095 3749 ft 202 kts 70°
2026-04-30 21:28 50.80207 6.93962 2908 ft 199 kts 69°
2026-04-30 21:28 50.80860 6.95896 2609 ft 199 kts 70°
2026-04-30 21:28 50.82125 6.99800 2041 ft 198 kts 70°
2026-04-30 21:29 50.82727 7.01692 1787 ft 182 kts 69°
2026-04-30 21:29 50.84158 7.06302 1044 ft 137 kts 67°
2026-04-30 21:30 50.84963 7.08943 671 ft 130 kts 65°
2026-04-30 21:31 50.86135 7.12771 256 ft 128 kts 66°
2026-04-30 21:31 50.86571 7.14224 260 ft 28 kts 65°
2026-04-30 21:32 50.86774 7.14293 258 ft 23 kts 317°
2026-04-30 21:32 50.86906 7.14107 255 ft 26 kts 318°
2026-04-30 21:32 50.87057 7.13887 243 ft 33 kts 317°
2026-04-30 21:32 50.87234 7.13630 237 ft 36 kts 317°
2026-04-30 21:33 50.87424 7.13357 233 ft 38 kts 317°
2026-04-30 21:33 50.87787 7.12797 232 ft 25 kts 279°
2026-04-30 21:33 50.87814 7.12638 232 ft 14 kts 323°
2026-04-30 21:34 50.87914 7.12604 234 ft 16 kts 343°
2026-04-30 21:34 50.88018 7.12411 232 ft 5 kts 207°
2026-04-30 21:34 50.87990 7.12380 234 ft 5 kts 216°
2026-04-30 21:35 50.87987 7.12376 234 ft 0 kts 216°